DELTA 1 DEB

Satellite information

Favourite Embed

Satellite Type and Status

DEBRISIN ORBIT

Key statistics

Satellite DELTA 1 DEB at a glance.

Uptime

17928

Days in orbit

Revolutions

≈ 13.2

Per day

Orbit

SSO

Sun Synchronous Orbit

Inclination

101.9

Latest

Satellite identification and parameters

Extended collection of information and parameters for DELTA 1 DEB.

Object identification

Identified? True

Debris? True

Object name: DELTA 1 DEB

International designator: 1976-077AT

Object number (NORAD): 10746

Object ID (CCSDS): 10746

Country: UNITED STATES OF AMERICA (US)

Current information (Y/N): Y

RCS size: SMALL

Orbital parameters

Period: 108.996 minutes

Inclination: 101.9148 deg

SMA: 7558.452 km

Apoapsis: 1391.458 km

Periapsis: 969.176 km

RAAN: 58.6991 deg

Eccentricy: 0.02793443

Argument of periapsis: 226.4497 deg

Mean anomaly: 192.6602 deg

Mean motion: 13.21154025 rev/day

Mean motion (dot): 0.0000352 rev/day2

B* drag term: 0.0071190982 1/REarth

Two-line elements (TLE)

Creation date: Aug. 27, 2025, 8:01 p.m.

Reference frame: TEME

Reference center: EARTH

Epoch: Aug. 27, 2025, 11:27 a.m. UTC

TLE line 0: 0 DELTA 1 DEB

TLE line 1: 1 10746U 76077AT 25239.47737334 .00003520 00000-0 71191-2 0 9995

TLE line 2: 2 10746 101.9148 58.6991 0279344 226.4497 192.6602 13.21154025314317

Live tracking on map

Real-time ground track for satellite DELTA 1 DEB.

In-orbit conjunctions

A list of the most updated potential collisions computed for object DELTA 1 DEB.

Target Orbit TCA Probability of collision Miss distance Type
EXPLORER 20 LEO 2024-11-27 06:02:29 0.0001129202 639.0 (m) PAYLOAD

Associated space launch

Meteorological satellite using radiometric imaging

DELTA 1 DEB was lifted into orbit during the mission ‘Delta 2310 | NOAA 5’, on board a Delta 2310 space rocket.

The launch took place on July 29, 1976, 5:07 p.m. from Space Launch Complex 2W.

For more information about the launch, click the button.

Launch to space Delta 2310 | NOAA 5
Delta 2310 | NOAA 5

Agency: N/A

Status: Launch Successful

Launch date: July 29, 1976, 5:07 p.m. UTC

Rocket: Delta 2310

Launch pad: Space Launch Complex 2W

Location: Vandenberg SFB, CA, USA

...

Latest news about this satellite

There are no fresh news available about this satellite. Check back as we update our databases every day.


Newsletter sign-up

Weekly statistics, charts and insights to help you stay on top of the space industry.